Regional Weather Roundup
Issued by NWS Albany, NY

Home | Current Version | Previous Version | Graphics & Text | Print | Product List | Glossary Off
Versions: 1 2 3 4 5 6 7 8 9 10 11 12 13 14 15 16 17 18 19 20 21 22 23 24 25 26 27 28 29 30 31 32 33 34 35 36 37 38 39 40 41 42 43 44 45 46 47 48 49 50

000
ASUS41 KALY 290610
RWRALY

NEW YORK STATE HOURLY WEATHER ROUNDUP
NATIONAL WEATHER SERVICE ALBANY NY
200 AM EDT FRI APR 29 2016

NOTE: "FAIR" INDICATES FEW OR NO CLOUDS BELOW 12,000 FEET WITH NO
SIGNIFICANT WEATHER AND/OR NO OBSTRUCTIONS TO VISIBILITY.

NYZ032-033-038>043-046>054-057>066-NYZ062>081-082-084-290700-
EAST


CITY           SKY/WX    TMP DP  RH WIND       PRES   REMARKS
ALBANY         MOCLDY    40  18  41 N10       30.09S WCI  33
GLENS FALLS    CLOUDY    39  17  41 N9        30.11F WCI  33
POUGHKEEPSIE   CLOUDY    51  39  63 CALM      30.04S
NEWBURGH       CLOUDY    48  41  76 CALM      30.05S
MONTGOMERY     CLOUDY    48  42  80 CALM      30.03F
WHITE PLAINS   CLOUDY    46  36  68 E5        30.04F
ISLIP          CLOUDY    48  37  65 E5        30.05F
NEW YORK CITY  CLOUDY    50  37  61 CALM      30.05F
CENTRAL PARK   CLOUDY    49  39  68 CALM      30.07F
$$

NYZ005>009-017-018-044>046-055-056-290700-
CENTRAL


CITY           SKY/WX    TMP DP  RH WIND       PRES   REMARKS
FULTON         CLOUDY    39  25  57 CALM      30.05F
SYRACUSE       CLOUDY    40  28  62 NE5       30.04S
ROME           CLOUDY    43  25  49 E9        30.06F
ELMIRA         CLOUDY    43  32  65 E3        30.02F
BINGHAMTON     LGT RAIN  43  34  70 CALM      30.00F
MONTICELLO     MOCLDY    45  39  81 CALM      30.03F
$$

NYZ026>034-041>043-087-290700-
NORTH


CITY           SKY/WX    TMP DP  RH WIND       PRES   REMARKS
WATERTOWN      CLOUDY    36  20  52 NE9       30.08F WCI  29
FORT DRUM      NOT AVBL
MASSENA        PTCLDY    32  18  56 E6        30.16S WCI  26
SARANAC LAKE   CLOUDY    28  15  58 E5        30.06F WCI  23
PLATTSBURGH    CLOUDY    29  19  66 CALM      30.16F
$$

NYZ001>004-010>016-019>021-085-290700-
WEST


CITY           SKY/WX    TMP DP  RH WIND       PRES   REMARKS
NIAGARA FALLS  CLOUDY    43  26  51 E9        30.05R
BUFFALO        CLOUDY    43  25  49 E9        30.05R
DUNKIRK        CLOUDY    43  33  68 E9        30.01S
JAMESTOWN      CLOUDY    41  37  87 E8        29.96F
WELLSVILLE     CLOUDY    39  31  72 E7        30.00F WCI  34
ROCHESTER      CLOUDY    43  23  45 E7        30.07S
PENN YAN       CLOUDY    42  28  57 CALM      30.05R
$$

             KEY
       WCI = WIND CHILL INDEX
       VSB = VISIBILITY
       HX  = HEAT INDEX
$$



USA.gov is the U.S. government's official web portal to all federal, state and local government web resources and services.